Weather History for Page, AZ

Change the Weather History Date:

Monday, April 29, 2013

  Actual Average Record
Temperature  
Mean Temperature 74 °F -  
Max Temperature 90 °F 74 °F 90 °F (1992)
Min Temperature 57 °F 49 °F 29 °F (1970)
Cooling Degree Days 8    
Growing Degree Days 24 (Base 50)    
Moisture  
Dew Point 18 °F    
Average Humidity 12    
Maximum Humidity 25    
Minimum Humidity 4    
Precipitation  
Precipitation 0.00 in - - ()
Sea Level Pressure  
Sea Level Pressure 29.65 in    
Wind  
Wind Speed 4 mph (West)    
Max Wind Speed 20 mph    
Max Gust Speed 30 mph    
Visibility 10 miles    
Events      
Averages and records for this station are not official NWS values.
T = Trace of Precipitation, MM = Missing Value Source: NWS Daily Summary

Daily Weather History Graph

Daily Weather History Graph

Search for Another Location

Airport:

Trip Planner

Search our weather history database for the weather conditions in past years. The results will help you decide how hot, cold, wet, or windy it might be!

Date:

Astronomy

Apr. 29, 2013 Rise Set
Actual Time 5:33 AM MST 7:13 PM MST
Civil Twilight 5:05 AM MST 7:40 PM MST
Nautical Twilight 4:32 AM MST 8:14 PM MST
Astronomical Twilight 3:57 AM MST 8:50 PM MST
Moon 11:38 PM MST (4/29) 9:00 AM MST (4/29)
Length of Visible Light 14h 35m
Length of Day
13h 39m
Waning Gibbous, 79% of the Moon is Illuminated
Apr 29
Waning Gibbous
May 2
Last Quarter
May 9
New
May 17
First Quarter
May 24
Full

Hourly Weather History & Observations

Time (MST) Temp. Dew Point Humidity Pressure Visibility Wind Dir Wind Speed Gust Speed Precip Events Conditions
12:53 AM 66.0 °F 19.9 °F 17% 29.74 in 10.0 mi Calm Calm - N/A   Clear
1:53 AM 64.0 °F 21.0 °F 19% 29.74 in 10.0 mi Calm Calm - N/A   Clear
2:53 AM 64.0 °F 21.0 °F 19% 29.73 in 10.0 mi Calm Calm - N/A   Clear
3:53 AM 62.1 °F 19.9 °F 20% 29.74 in 10.0 mi SSE 3.5 mph - N/A   Clear
4:53 AM 57.9 °F 21.9 °F 25% 29.75 in 10.0 mi Calm Calm - N/A   Clear
5:53 AM 61.0 °F 19.9 °F 21% 29.75 in 10.0 mi SSE 3.5 mph - N/A   Clear
6:53 AM 63.0 °F 21.0 °F 20% 29.77 in 10.0 mi SE 4.6 mph - N/A   Clear
7:53 AM 68.0 °F 19.0 °F 15% 29.78 in 10.0 mi NNW 3.5 mph - N/A   Clear
8:53 AM 71.1 °F 19.9 °F 14% 29.76 in 10.0 mi Variable 3.5 mph - N/A   Clear
9:53 AM 75.0 °F 21.9 °F 14% 29.74 in 10.0 mi North 4.6 mph - N/A   Clear
10:53 AM 78.1 °F 21.9 °F 12% 29.73 in 10.0 mi Variable 4.6 mph - N/A   Clear
11:53 AM 82.0 °F 19.9 °F 10% 29.70 in 10.0 mi NNE 3.5 mph - N/A   Clear
12:53 PM 84.9 °F 19.9 °F 9% 29.65 in 10.0 mi Variable 6.9 mph - N/A   Clear
1:53 PM 88.0 °F 18.0 °F 8% 29.62 in 10.0 mi Variable 5.8 mph - N/A   Clear
2:53 PM 89.1 °F 14.0 °F 6% 29.58 in 10.0 mi West 11.5 mph 27.6 mph N/A   Clear
3:53 PM 89.1 °F 12.0 °F 6% 29.56 in 10.0 mi West 19.6 mph 29.9 mph N/A   Clear
4:53 PM 88.0 °F 12.9 °F 6% 29.56 in 10.0 mi West 9.2 mph 21.9 mph N/A   Clear
5:53 PM 87.1 °F 15.1 °F 7% 29.54 in 10.0 mi West 12.7 mph 21.9 mph N/A   Clear
6:53 PM 84.0 °F 15.1 °F 8% 29.55 in 10.0 mi West 15.0 mph 25.3 mph N/A   Clear
7:53 PM 82.0 °F 15.1 °F 8% 29.55 in 10.0 mi WSW 10.4 mph 17.3 mph N/A   Clear
8:53 PM 81.0 °F 16.0 °F 9% 29.55 in 10.0 mi WSW 6.9 mph - N/A   Clear
9:53 PM 80.1 °F 16.0 °F 9% 29.55 in 10.0 mi WSW 9.2 mph - N/A   Clear
10:53 PM 79.0 °F 16.0 °F 9% 29.54 in 10.0 mi WSW 6.9 mph - N/A   Clear
11:53 PM 75.9 °F 16.0 °F 10% 29.53 in 10.0 mi Variable 3.5 mph - N/A   Clear